Content
SEND FEEDBACK

Daily
Averages
Monthly
Summary
France

AVIGNON, FRANCE


Home > Europe > France
Elevation: 187 feet     Latitude: 44 00N     Longitude: 004 45E

WEATHER
 
SELECT A DAY
Number of Records: 173,883;   Date Range: 5/17/04 - 11/27/14
 
SHARE

PRINT THIS DATA

[ ← Previous Day ]
WEATHER ALMANAC - JANUARY 29, 2013
[ Next Day → ]
[ °C ]   °F
Weather ElementAverageHighLow
Temperature44.2 °F59 °F (4:00 pm)33.8 °F (6:00 am)
Dewpoint36.5 °F41 °F (2:00 pm)32 °F (6:00 am)
Humidity76 %93 % (5:30 am)51 % (2:30 pm)
Barometer30.26 in30.30 in (11:30 am)30.24 in (12:30 am)
Wind Speed3.3 mph11.5 mph (1:00 am)
Weather ElementAverage
Visibility6.2 mi
Wind DirectionSSE (153 °)

Weather ElementTotal
Precipitation---
Heating Degree Days18.6 (Base 65)
Averaged from 47 records on January 29, 2013
WEATHER CONDITIONS BREAKOUT
WIND DIRECTION BREAKOUT
WEATHER BY HOUR - JANUARY 29, 2013
[ °C ]   °F
Local TimeTemperatureDewpointHumidityBarometerVisibilityWind DirectionWind SpeedGust SpeedPrecipitationEventsConditions
12:30 AM41.0 °F35.6 °F81 %30.24 in6.2 miVariable3.5 mph
1:00 AM41.0 °F35.6 °F81 %30.24 in6.2 miNorth (350°)11.5 mph
1:30 AM39.2 °F33.8 °F81 %30.24 in6.2 miNorth (350°)9.2 mph
2:00 AM39.2 °F33.8 °F81 %30.27 in6.2 miNNW (340°)2.3 mph
2:30 AM37.4 °F33.8 °F87 %30.24 in6.2 miNNW (340°)4.6 mph
3:00 AM37.4 °F33.8 °F87 %30.27 in6.2 miNorth (350°)6.9 mph
3:30 AM37.4 °F33.8 °F87 %30.27 in6.2 miNorth (10°)3.5 mph
4:00 AM37.4 °F33.8 °F87 %30.27 in6.2 miNorth (360°)4.6 mph
4:30 AM37.4 °F33.8 °F87 %30.27 in6.2 miNorth (360°)5.8 mph
5:00 AM37.4 °F33.8 °F87 %30.27 in6.2 miVariable2.3 mph
5:30 AM35.6 °F33.8 °F93 %30.27 in6.2 miSouth (190°)2.3 mph
6:00 AM33.8 °F32.0 °F93 %30.27 in6.2 miVariable2.3 mph
6:30 AM35.6 °F33.8 °F93 %30.24 in6.2 miNNE (30°)3.5 mph
7:00 AM37.4 °F32.0 °F81 %30.27 in6.2 miVariable2.3 mph
7:30 AM33.8 °F32.0 °F93 %30.27 in6.2 miCalm
8:00 AM35.6 °F33.8 °F93 %30.27 in6.2 miENE (60°)4.6 mph
8:30 AM33.8 °F32.0 °F93 %30.27 in6.2 miVariable1.2 mph
9:00 AM37.4 °F35.6 °F93 %30.27 in6.2 miCalm
9:30 AM41.0 °F35.6 °F81 %30.27 in6.2 miVariable1.2 mph
10:00 AM42.8 °F35.6 °F76 %30.27 in6.2 miVariable2.3 mph
10:30 AM44.6 °F35.6 °F71 %30.27 in6.2 miVariable1.2 mph
11:00 AM46.4 °F37.4 °F71 %30.27 in6.2 miVariable1.2 mph
11:30 AM48.2 °F35.6 °F62 %30.30 in6.2 miVariable1.2 mph
12:00 PM51.8 °F37.4 °F58 %30.30 in6.2 miVariable1.2 mph
12:30 PM51.8 °F37.4 °F58 %30.27 in6.2 miVariable1.2 mph
1:00 PM53.6 °F37.4 °F54 %30.30 in6.2 miVariable2.3 mph
1:30 PM55.4 °F39.2 °F54 %30.27 in6.2 miNW (310°)6.9 mph
2:00 PM57.2 °F41.0 °F55 %30.27 in6.2 miNNW (340°)3.5 mph
2:30 PM57.2 °F39.2 °F51 %30.24 in6.2 miVariable2.3 mph
3:00 PM57.2 °F39.2 °F51 %30.24 in6.2 miNW (320°)5.8 mph
3:30 PM57.2 °F39.2 °F51 %30.24 in6.2 miNNW (340°)5.8 mph
4:00 PM59.0 °F41.0 °F51 %30.24 in6.2 miNorth (360°)5.8 mphPartly Cloudy
4:30 PM57.2 °F41.0 °F55 %30.24 in6.2 miNNW (340°)5.8 mph
5:00 PM53.6 °F41.0 °F62 %30.24 in6.2 miNorth (350°)6.9 mph
5:30 PM51.8 °F39.2 °F62 %30.24 in6.2 miNorth (360°)3.5 mphPartly Cloudy
6:00 PM50.0 °F41.0 °F71 %30.24 in6.2 miNorth (350°)4.6 mphMostly Cloudy
6:30 PM50.0 °F39.2 °F66 %30.24 in6.2 miNNW (330°)3.5 mph
7:00 PM46.4 °F39.2 °F76 %30.24 in6.2 miNorth (350°)3.5 mph
7:30 PM44.6 °F39.2 °F81 %30.24 in6.2 miVariable3.5 mph
8:00 PM44.6 °F39.2 °F81 %30.24 in6.2 miNorth (350°)2.3 mph
8:30 PM42.8 °F37.4 °F81 %30.24 in6.2 miVariable2.3 mph
9:00 PM42.8 °F37.4 °F81 %30.24 in6.2 miCalm
9:30 PM42.8 °F39.2 °F87 %30.24 in6.2 miCalm
10:00 PM41.0 °F37.4 °F87 %30.24 in6.2 miCalm
10:30 PM39.2 °F35.6 °F87 %30.24 in6.2 miNorth (350°)2.3 mph
11:00 PM41.0 °F37.4 °F87 %30.24 in6.2 miVariable2.3 mph
11:30 PM39.2 °F35.6 °F87 %30.24 in6.2 miVariable2.3 mph
Hourly data recorded from LFMV, located miles away from Avignon, France







STORIES FROM OUR PARTNERS